TimeCST,TemperatureF,Dew PointF,Humidity,Sea Level PressureIn,VisibilityMPH,Wind Direction,Wind SpeedMPH,Gust SpeedMPH,PrecipitationIn,Events,Conditions,WindDirDegrees,DateUTC
12:53 AM,26.1,19.9,78,30.25,10.0,NNW,3.5,-,N/A,,Clear,330,2013-03-03 06:53:00
1:53 AM,26.1,19.9,78,30.25,10.0,NW,3.5,-,N/A,,Clear,310,2013-03-03 07:53:00
2:53 AM,27.0,19.9,75,30.25,10.0,NW,4.6,-,N/A,,Clear,320,2013-03-03 08:53:00
3:53 AM,27.0,19.0,72,30.24,10.0,NNW,4.6,-,N/A,,Clear,340,2013-03-03 09:53:00
4:53 AM,26.1,19.0,75,30.22,10.0,North,4.6,-,N/A,,Clear,360,2013-03-03 10:53:00
5:53 AM,24.1,19.9,84,30.22,10.0,Calm,Calm,-,N/A,,Clear,0,2013-03-03 11:53:00
6:53 AM,24.1,19.9,84,30.24,10.0,Calm,Calm,-,N/A,,Clear,0,2013-03-03 12:53:00
7:53 AM,28.9,19.0,67,30.25,10.0,Calm,Calm,-,N/A,,Clear,0,2013-03-03 13:53:00
8:53 AM,32.0,19.0,59,30.24,10.0,ESE,3.5,-,N/A,,Clear,110,2013-03-03 14:53:00
9:53 AM,34.0,21.0,59,30.25,10.0,Variable,3.5,-,N/A,,Clear,0,2013-03-03 15:53:00
10:53 AM,37.0,19.9,50,30.23,10.0,SW,6.9,-,N/A,,Clear,220,2013-03-03 16:53:00
11:53 AM,37.9,21.0,51,30.21,10.0,Variable,6.9,-,N/A,,Mostly Cloudy,0,2013-03-03 17:53:00
12:53 PM,41.0,21.0,45,30.17,10.0,South,4.6,-,N/A,,Scattered Clouds,180,2013-03-03 18:53:00
1:53 PM,42.1,21.9,45,30.14,10.0,South,6.9,-,N/A,,Mostly Cloudy,180,2013-03-03 19:53:00
2:53 PM,44.1,25.0,47,30.12,10.0,Variable,3.5,-,N/A,,Overcast,0,2013-03-03 20:53:00
3:53 PM,44.1,24.1,45,30.09,10.0,SSW,5.8,-,N/A,,Scattered Clouds,200,2013-03-03 21:53:00
4:53 PM,44.1,24.1,45,30.09,10.0,South,4.6,-,N/A,,Overcast,170,2013-03-03 22:53:00
5:53 PM,44.1,27.0,51,30.07,10.0,SSE,9.2,-,N/A,,Mostly Cloudy,150,2013-03-03 23:53:00
6:53 PM,42.1,28.9,60,30.07,10.0,SSE,4.6,-,N/A,,Partly Cloudy,160,2013-03-04 00:53:00
7:53 PM,39.9,28.9,65,30.08,10.0,South,4.6,-,N/A,,Partly Cloudy,170,2013-03-04 01:53:00
8:53 PM,39.9,30.0,68,30.07,10.0,SSE,6.9,-,N/A,,Clear,150,2013-03-04 02:53:00
9:53 PM,39.9,28.9,65,30.06,10.0,SSE,9.2,-,N/A,,Clear,160,2013-03-04 03:53:00
10:53 PM,39.9,30.0,68,30.05,10.0,SSE,8.1,-,N/A,,Clear,150,2013-03-04 04:53:00
11:53 PM,39.0,30.0,70,30.05,10.0,SSE,6.9,-,N/A,,Clear,150,2013-03-04 05:53:00